Time,TemperatureF,DewpointF,PressureIn,WindDirection,WindDirectionDegrees,WindSpeedMPH,WindSpeedGustMPH,Humidity,HourlyPrecipIn,Conditions,Clouds,dailyrainin,SolarRadiationWatts/m^2,SoftwareType,DateUTC
2013-01-07 00:09:00,31.9,27.0,30.06,WSW,257,3.0,-999.0,83,-99.99,,,0.00,0,weatherlink.com 1.10,2013-01-07 05:09:00,
2013-01-07 00:24:00,31.9,27.0,30.06,West,278,3.0,-999.0,83,-99.99,,,0.00,0,weatherlink.com 1.10,2013-01-07 05:24:00,
2013-01-07 00:39:00,31.9,27.0,30.06,SSW,205,4.0,-999.0,83,-99.99,,,0.00,0,weatherlink.com 1.10,2013-01-07 05:39:00,
2013-01-07 00:54:00,31.9,27.0,30.07,SW,223,11.0,-999.0,83,-99.99,,,0.00,0,weatherlink.com 1.10,2013-01-07 05:54:00,
2013-01-07 01:09:00,31.8,28.0,30.08,SSW,213,5.0,-999.0,84,-99.99,,,0.00,0,weatherlink.com 1.10,2013-01-07 06:09:00,
2013-01-07 01:24:00,31.8,28.0,30.09,West,280,5.0,-999.0,84,-99.99,,,0.00,0,weatherlink.com 1.10,2013-01-07 06:24:00,
2013-01-07 01:39:00,31.7,27.0,30.09,NW,304,3.0,-999.0,84,-99.99,,,0.00,0,weatherlink.com 1.10,2013-01-07 06:39:00,
2013-01-07 01:54:00,31.7,27.0,30.09,WSW,246,7.0,-999.0,84,-99.99,,,0.00,0,weatherlink.com 1.10,2013-01-07 06:54:00,
2013-01-07 02:09:00,31.7,27.0,30.11,West,261,8.0,-999.0,84,-99.99,,,0.00,0,weatherlink.com 1.10,2013-01-07 07:09:00,
2013-01-07 02:24:00,31.8,28.0,30.11,WSW,247,2.0,-999.0,84,-99.99,,,0.00,0,weatherlink.com 1.10,2013-01-07 07:24:00,
2013-01-07 02:39:00,31.7,27.0,30.12,WSW,239,4.0,-999.0,84,-99.99,,,0.00,0,weatherlink.com 1.10,2013-01-07 07:39:00,
2013-01-07 02:54:00,31.7,27.0,30.12,SW,236,4.0,-999.0,84,-99.99,,,0.00,0,weatherlink.com 1.10,2013-01-07 07:54:00,
2013-01-07 03:09:00,31.5,28.0,30.12,WNW,290,5.0,-999.0,85,-99.99,,,0.00,0,weatherlink.com 1.10,2013-01-07 08:09:00,
2013-01-07 03:24:00,31.5,28.0,30.13,SW,225,3.0,-999.0,85,-99.99,,,0.00,0,weatherlink.com 1.10,2013-01-07 08:24:00,
2013-01-07 03:39:00,31.5,28.0,30.13,West,270,1.0,-999.0,86,-99.99,,,0.00,0,weatherlink.com 1.10,2013-01-07 08:39:00,
2013-01-07 03:54:00,31.3,28.0,30.14,West,280,3.0,-999.0,88,-99.99,,,0.00,0,weatherlink.com 1.10,2013-01-07 08:54:00,
2013-01-07 04:09:00,31.2,28.0,30.14,WNW,292,2.0,-999.0,89,-99.99,,,0.00,0,weatherlink.com 1.10,2013-01-07 09:09:00,
2013-01-07 04:24:00,31.1,28.0,30.15,NNW,348,4.0,-999.0,89,-99.99,,,0.00,0,weatherlink.com 1.10,2013-01-07 09:24:00,
2013-01-07 04:39:00,30.8,28.0,30.16,West,269,3.0,-999.0,88,-99.99,,,0.00,0,weatherlink.com 1.10,2013-01-07 09:39:00,
2013-01-07 04:54:00,30.7,26.0,30.18,NW,316,10.0,-999.0,84,-99.99,,,0.00,0,weatherlink.com 1.10,2013-01-07 09:54:00,
2013-01-07 05:09:00,30.4,26.0,30.18,NW,308,2.0,-999.0,82,-99.99,,,0.00,0,weatherlink.com 1.10,2013-01-07 10:09:00,
2013-01-07 05:24:00,30.0,24.0,30.19,NE,54,10.0,-999.0,79,-99.99,,,0.00,0,weatherlink.com 1.10,2013-01-07 10:24:00,
2013-01-07 05:39:00,29.6,24.0,30.20,West,277,1.0,-999.0,78,-99.99,,,0.00,0,weatherlink.com 1.10,2013-01-07 10:39:00,
2013-01-07 05:54:00,29.4,23.0,30.21,NNW,336,4.0,-999.0,78,-99.99,,,0.00,0,weatherlink.com 1.10,2013-01-07 10:54:00,
2013-01-07 06:09:00,29.2,23.0,30.23,NW,305,5.0,-999.0,78,-99.99,,,0.00,0,weatherlink.com 1.10,2013-01-07 11:09:00,
2013-01-07 06:24:00,28.9,23.0,30.23,SW,223,9.0,-999.0,78,-99.99,,,0.01,0,weatherlink.com 1.10,2013-01-07 11:24:00,
2013-01-07 06:39:00,28.4,22.0,30.25,NNW,327,5.0,-999.0,77,-99.99,,,0.01,0,weatherlink.com 1.10,2013-01-07 11:39:00,
2013-01-07 06:54:00,27.8,22.0,30.25,West,279,4.0,-999.0,78,-99.99,,,0.01,0,weatherlink.com 1.10,2013-01-07 11:54:00,
2013-01-07 07:09:00,27.3,22.0,30.26,West,266,10.0,-999.0,79,-99.99,,,0.01,0,weatherlink.com 1.10,2013-01-07 12:09:00,
2013-01-07 07:24:00,26.7,21.0,30.27,North,9,3.0,-999.0,79,-99.99,,,0.01,0,weatherlink.com 1.10,2013-01-07 12:24:00,
2013-01-07 07:39:00,26.0,20.0,30.28,SW,234,9.0,-999.0,79,-99.99,,,0.01,5,weatherlink.com 1.10,2013-01-07 12:39:00,
2013-01-07 07:54:00,25.5,20.0,30.30,North,355,3.0,-999.0,80,-99.99,,,0.01,7,weatherlink.com 1.10,2013-01-07 12:54:00,
2013-01-07 08:09:00,25.2,20.0,30.30,NW,309,2.0,-999.0,81,-99.99,,,0.01,33,weatherlink.com 1.10,2013-01-07 13:09:00,
2013-01-07 08:24:00,24.8,20.0,30.31,WNW,295,5.0,-999.0,81,-99.99,,,0.01,62,weatherlink.com 1.10,2013-01-07 13:24:00,
2013-01-07 08:39:00,24.7,20.0,30.32,WNW,296,2.0,-999.0,81,-99.99,,,0.01,53,weatherlink.com 1.10,2013-01-07 13:39:00,
2013-01-07 08:54:00,24.5,19.0,30.34,NW,308,5.0,-999.0,81,-99.99,,,0.01,46,weatherlink.com 1.10,2013-01-07 13:54:00,
2013-01-07 09:09:00,24.3,19.0,30.35,NW,304,0.0,-999.0,81,-99.99,,,0.01,56,weatherlink.com 1.10,2013-01-07 14:09:00,
2013-01-07 09:24:00,24.4,19.0,30.36,SW,228,3.0,-999.0,81,-99.99,,,0.01,84,weatherlink.com 1.10,2013-01-07 14:24:00,
2013-01-07 09:39:00,24.1,19.0,30.36,NNW,327,9.0,-999.0,81,-99.99,,,0.01,98,weatherlink.com 1.10,2013-01-07 14:39:00,
2013-01-07 09:54:00,24.0,19.0,30.37,West,279,1.0,-999.0,81,-99.99,,,0.01,97,weatherlink.com 1.10,2013-01-07 14:54:00,
2013-01-07 10:09:00,23.8,19.0,30.38,West,279,9.0,-999.0,81,-99.99,,,0.01,90,weatherlink.com 1.10,2013-01-07 15:09:00,
2013-01-07 10:24:00,23.5,19.0,30.38,West,261,3.0,-999.0,81,-99.99,,,0.01,118,weatherlink.com 1.10,2013-01-07 15:24:00,
2013-01-07 10:39:00,23.7,19.0,30.38,WSW,243,6.0,-999.0,81,-99.99,,,0.01,207,weatherlink.com 1.10,2013-01-07 15:39:00,
2013-01-07 10:54:00,23.9,19.0,30.39,WNW,288,0.0,-999.0,80,-99.99,,,0.01,148,weatherlink.com 1.10,2013-01-07 15:54:00,
2013-01-07 11:09:00,23.8,19.0,30.38,WNW,286,1.0,-999.0,80,-99.99,,,0.01,176,weatherlink.com 1.10,2013-01-07 16:09:00,
2013-01-07 11:24:00,24.6,19.0,30.38,SW,214,6.0,-999.0,80,-99.99,,,0.01,348,weatherlink.com 1.10,2013-01-07 16:24:00,
2013-01-07 11:39:00,25.1,19.0,30.38,West,281,2.0,-999.0,78,-99.99,,,0.01,148,weatherlink.com 1.10,2013-01-07 16:39:00,
2013-01-07 11:54:00,24.9,19.0,30.38,WNW,283,2.0,-999.0,78,-99.99,,,0.01,232,weatherlink.com 1.10,2013-01-07 16:54:00,
2013-01-07 12:09:00,25.4,19.0,30.38,West,260,4.0,-999.0,77,-99.99,,,0.01,271,weatherlink.com 1.10,2013-01-07 17:09:00,
2013-01-07 12:24:00,26.3,20.0,30.38,WSW,245,4.0,-999.0,76,-99.99,,,0.01,689,weatherlink.com 1.10,2013-01-07 17:24:00,
2013-01-07 12:39:00,26.6,19.0,30.38,SW,231,1.0,-999.0,74,-99.99,,,0.01,418,weatherlink.com 1.10,2013-01-07 17:39:00,
2013-01-07 12:54:00,26.5,19.0,30.38,SW,219,5.0,-999.0,74,-99.99,,,0.01,225,weatherlink.com 1.10,2013-01-07 17:54:00,
2013-01-07 13:09:00,26.7,19.0,30.39,WNW,292,2.0,-999.0,74,-99.99,,,0.01,519,weatherlink.com 1.10,2013-01-07 18:09:00,
2013-01-07 13:24:00,26.7,19.0,30.39,NW,313,2.0,-999.0,72,-99.99,,,0.01,195,weatherlink.com 1.10,2013-01-07 18:24:00,
2013-01-07 13:39:00,26.9,19.0,30.38,WNW,296,3.0,-999.0,73,-99.99,,,0.01,378,weatherlink.com 1.10,2013-01-07 18:39:00,
2013-01-07 13:54:00,28.1,20.0,30.39,WSW,252,2.0,-999.0,71,-99.99,,,0.01,329,weatherlink.com 1.10,2013-01-07 18:54:00,
2013-01-07 14:09:00,29.2,20.0,30.39,SSE,155,2.0,-999.0,69,-99.99,,,0.01,302,weatherlink.com 1.10,2013-01-07 19:09:00,
2013-01-07 14:24:00,28.8,19.0,30.39,WSW,238,3.0,-999.0,68,-99.99,,,0.01,255,weatherlink.com 1.10,2013-01-07 19:24:00,
2013-01-07 14:39:00,29.0,19.0,30.40,West,259,2.0,-999.0,67,-99.99,,,0.01,234,weatherlink.com 1.10,2013-01-07 19:39:00,
2013-01-07 14:54:00,28.8,19.0,30.40,SSW,207,2.0,-999.0,68,-99.99,,,0.01,195,weatherlink.com 1.10,2013-01-07 19:54:00,
2013-01-07 15:09:00,28.6,19.0,30.41,NW,319,4.0,-999.0,67,-99.99,,,0.01,149,weatherlink.com 1.10,2013-01-07 20:09:00,
2013-01-07 15:24:00,29.0,19.0,30.41,West,263,4.0,-999.0,67,-99.99,,,0.01,109,weatherlink.com 1.10,2013-01-07 20:24:00,
2013-01-07 15:39:00,28.7,19.0,30.41,West,269,3.0,-999.0,67,-99.99,,,0.01,74,weatherlink.com 1.10,2013-01-07 20:39:00,
2013-01-07 15:54:00,28.4,19.0,30.41,SW,235,3.0,-999.0,68,-99.99,,,0.01,26,weatherlink.com 1.10,2013-01-07 20:54:00,
2013-01-07 16:09:00,27.6,19.0,30.41,West,280,1.0,-999.0,70,-99.99,,,0.01,18,weatherlink.com 1.10,2013-01-07 21:09:00,
2013-01-07 16:24:00,27.0,18.0,30.41,SW,234,2.0,-999.0,70,-99.99,,,0.01,12,weatherlink.com 1.10,2013-01-07 21:24:00,
2013-01-07 16:39:00,26.5,18.0,30.40,SW,234,0.0,-999.0,71,-99.99,,,0.01,5,weatherlink.com 1.10,2013-01-07 21:39:00,
2013-01-07 16:54:00,26.1,18.0,30.40,SW,234,0.0,-999.0,72,-99.99,,,0.01,0,weatherlink.com 1.10,2013-01-07 21:54:00,
2013-01-07 17:09:00,25.3,17.0,30.40,SW,234,0.0,-999.0,72,-99.99,,,0.01,0,weatherlink.com 1.10,2013-01-07 22:09:00,
2013-01-07 17:24:00,24.4,17.0,30.40,SW,234,0.0,-999.0,74,-99.99,,,0.01,0,weatherlink.com 1.10,2013-01-07 22:24:00,
2013-01-07 17:39:00,23.6,17.0,30.40,SW,234,0.0,-999.0,75,-99.99,,,0.01,0,weatherlink.com 1.10,2013-01-07 22:39:00,
2013-01-07 17:54:00,22.5,16.0,30.39,SW,234,0.0,-999.0,77,-99.99,,,0.01,0,weatherlink.com 1.10,2013-01-07 22:54:00,
2013-01-07 18:09:00,21.6,15.0,30.39,SW,234,0.0,-999.0,77,-99.99,,,0.01,0,weatherlink.com 1.10,2013-01-07 23:09:00,
2013-01-07 18:24:00,20.7,15.0,30.40,SW,234,0.0,-999.0,78,-99.99,,,0.01,0,weatherlink.com 1.10,2013-01-07 23:24:00,
2013-01-07 18:54:00,18.9,14.0,30.40,SW,234,0.0,-999.0,80,-99.99,,,0.01,0,weatherlink.com 1.10,2013-01-07 23:54:00,
2013-01-07 19:09:00,17.9,13.0,30.39,SW,234,0.0,-999.0,81,-99.99,,,0.01,0,weatherlink.com 1.10,2013-01-08 00:09:00,
2013-01-07 19:24:00,16.8,12.0,30.39,North,360,0.0,-999.0,82,-99.99,,,0.01,0,weatherlink.com 1.10,2013-01-08 00:24:00,
2013-01-07 19:39:00,16.1,12.0,30.38,North,360,0.0,-999.0,83,-99.99,,,0.01,0,weatherlink.com 1.10,2013-01-08 00:39:00,
2013-01-07 19:54:00,15.6,12.0,30.37,North,360,0.0,-999.0,84,-99.99,,,0.01,0,weatherlink.com 1.10,2013-01-08 00:54:00,
2013-01-07 20:09:00,15.0,11.0,30.37,North,360,0.0,-999.0,84,-99.99,,,0.01,0,weatherlink.com 1.10,2013-01-08 01:09:00,
2013-01-07 20:24:00,14.5,11.0,30.37,North,360,0.0,-999.0,85,-99.99,,,0.01,0,weatherlink.com 1.10,2013-01-08 01:24:00,
2013-01-07 20:39:00,14.1,10.0,30.37,North,360,0.0,-999.0,85,-99.99,,,0.01,0,weatherlink.com 1.10,2013-01-08 01:39:00,
2013-01-07 20:54:00,14.1,11.0,30.37,NNE,24,0.0,-999.0,86,-99.99,,,0.01,0,weatherlink.com 1.10,2013-01-08 01:54:00,
2013-01-07 21:09:00,13.9,11.0,30.37,NNE,24,0.0,-999.0,86,-99.99,,,0.01,0,weatherlink.com 1.10,2013-01-08 02:09:00,
2013-01-07 21:24:00,14.3,11.0,30.37,NNE,24,0.0,-999.0,87,-99.99,,,0.01,0,weatherlink.com 1.10,2013-01-08 02:24:00,
2013-01-07 21:39:00,15.0,12.0,30.36,WNW,300,0.0,-999.0,87,-99.99,,,0.01,0,weatherlink.com 1.10,2013-01-08 02:39:00,
2013-01-07 21:54:00,17.2,15.0,30.36,SW,226,4.0,-999.0,89,-99.99,,,0.01,0,weatherlink.com 1.10,2013-01-08 02:54:00,
2013-01-07 22:09:00,19.6,17.0,30.36,SSW,192,3.0,-999.0,90,-99.99,,,0.01,0,weatherlink.com 1.10,2013-01-08 03:09:00,
2013-01-07 22:24:00,23.2,20.0,30.36,SSW,205,3.0,-999.0,88,-99.99,,,0.01,0,weatherlink.com 1.10,2013-01-08 03:24:00,
2013-01-07 22:39:00,25.6,21.0,30.35,SW,231,2.0,-999.0,84,-99.99,,,0.01,0,weatherlink.com 1.10,2013-01-08 03:39:00,
2013-01-07 22:54:00,26.9,22.0,30.36,West,261,2.0,-999.0,80,-99.99,,,0.01,0,weatherlink.com 1.10,2013-01-08 03:54:00,
2013-01-07 23:09:00,27.5,21.0,30.35,WSW,257,7.0,-999.0,77,-99.99,,,0.01,0,weatherlink.com 1.10,2013-01-08 04:09:00,
2013-01-07 23:24:00,27.8,21.0,30.34,SSW,203,3.0,-999.0,76,-99.99,,,0.01,0,weatherlink.com 1.10,2013-01-08 04:24:00,
2013-01-07 23:39:00,27.8,21.0,30.33,SW,215,2.0,-999.0,75,-99.99,,,0.01,0,weatherlink.com 1.10,2013-01-08 04:39:00,
2013-01-07 23:54:00,27.8,21.0,30.33,WSW,238,2.0,-999.0,74,-99.99,,,0.01,0,weatherlink.com 1.10,2013-01-08 04:54:00,